Home > Weather > Kyoto > Past weeks

Flag for Japan Weather for the Past 2 Weeks in Kyoto, Japan

Now
39 °F

Chilly.


Feels Like: 36 °F
Forecast: 26 / 53 °F
Wind: 3 mph from Southeast

Location: Osaka

Current Time: Feb 11, 2016 at 1:40:02 AM

Latest Report: Feb 11, 2016 at 1:00 AM


Visibility: N/A

Pressure: 30.41 "Hg

Humidity: 57%

Dew point: 25 °F

Location of KyotoLocation

Historic Weather in Kyoto — Graph

°F

Kyoto Temperature Yesterday

Maximum temperature yesterday: 49 °F (at 3:00 PM)
Minimum temperature yesterday: 40 °F (at 4:00 AM)
Average temperature yesterday: 43 °F

High & Low Weather Summary for the Past Weeks

 TemperatureHumidityPressure
High52 °F (Jan 31, 1:00 PM)96% (Jan 29, 5:00 PM)30.45 "Hg (Jan 29, 5:00 PM)
Low31 °F (Feb 8, 7:00 AM)25% (Feb 8, 2:00 PM)29.93 "Hg (Feb 9, 7:00 AM)
Average44 °F62%30.17 "Hg
* Reported Midnight between Jan 26 and Jan 27 — Midnight between Feb 10 and Feb 11, Kyoto, Weather by CustomWeather, © 2016

Note: Actual official high and low records may vary slightly from our data, if they occured in-between our weather recording intervals... More about our weather records

Advertising

Kyoto Weather History for the Previous 24 Hours

 ConditionsComfort  
Time TempWeatherWind HumidityBarometerVisibility
12:00 AM
Thu, Feb 11
40 °FChilly.3 mph54%30.41 "HgN/A
11:00 PM
Wed, Feb 10
40 °FQuite cool.2 mph54%30.40 "HgN/A
10:00 PM42 °FQuite cool.7 mph51%30.39 "HgN/A
9:00 PM41 °FPassing clouds.6 mph47%30.38 "Hg19 mi
8:00 PM43 °FQuite cool.5 mph43%30.37 "HgN/A
7:00 PM44 °FQuite cool.6 mph40%30.35 "HgN/A
6:00 PM45 °FPassing clouds.9 mph39%30.34 "Hg25 mi
5:00 PM46 °FCool.10 mph39%30.32 "HgN/A
4:00 PM47 °FCool.12 mph39%30.30 "HgN/A
3:00 PM49 °FPassing clouds.7 mph39%30.28 "Hg22 mi
2:00 PM47 °FCool.7 mph43%30.28 "HgN/A
1:00 PM47 °FCool.8 mph41%30.29 "HgN/A
12:00 PM45 °FPartly sunny.7 mph42%30.30 "Hg22 mi
6:00 AM40 °FOvercast.6 mph60%30.24 "Hg19 mi
5:00 AM40 °FChilly.5 mph58%30.22 "HgN/A
4:00 AM40 °FChilly.5 mph59%30.21 "HgN/A
3:00 AM40 °FPassing clouds.3 mph60%30.19 "Hg19 mi
2:00 AM40 °FQuite cool.5 mph63%30.19 "HgN/A
1:00 AM41 °FQuite cool.3 mph58%30.17 "HgN/A
Weather by CustomWeather, © 2016

See weather overviewHow to use our weather pages